Flag for Netherlands Weather past 2 weeks in Amersfoort, Netherlands

Now
43 °F

Passing clouds.


Feels Like: 43 °F
Forecast: 50 / 72 °F
Wind: 1 mph from South

Location: Deelen

Current Time: Jul 31, 2015 at 3:08:01 AM

Latest Report: Jul 31, 2015 at 2:25 AM


Visibility: N/A

Pressure: 30.09 "Hg

Humidity: 100%

Dew point: 43 °F

Location of AmersfoortLocation

Historic Weather in Amersfoort — Graph

°F

Amersfoort temperature yesterday

Maximum temperature yesterday: 63 °F (at 4:55 PM)
Minimum temperature yesterday: 46 °F (at 11:55 PM)
Average temperature yesterday: 55 °F

Past Weeks' High & Low Weather Summary

 TemperatureHumidityPressure
High79 °F (Jul 17, 1:25 PM)100% (Jul 16, 1:55 AM)30.12 "Hg (Jul 16, 1:55 AM)
Low45 °F (Jul 31, 1:25 AM)40% (Jul 23, 4:25 PM)29.45 "Hg (Jul 25, 6:25 AM)
Average62 °F78%29.85 "Hg
* Reported Jul 16 1:25 AM — Jul 31 1:55 AM, Amersfoort, Weather by CustomWeather, © 2015

Note: Actual official high and low records may vary slightly from our data, if they occured in-between our weather recording intervals... More about our weather records

Advertising

Amersfoort weather history for previous 24 hours

 ConditionsComfort  
Time TempWeatherWind HumidityBarometerVisibility
1:55 AM
Fri, Jul 31
45 °FPassing clouds.1 mph93%30.09 "HgN/A
1:25 AM45 °FPassing clouds.1 mph93%30.09 "HgN/A
12:55 AM46 °FPassing clouds.1 mph93%30.09 "HgN/A
12:25 AM46 °FClear.3 mph93%30.09 "HgN/A
11:55 PM
Thu, Jul 30
46 °FPassing clouds.3 mph93%30.09 "HgN/A
11:25 PM48 °FPassing clouds.5 mph94%30.09 "HgN/A
10:55 PM50 °FPassing clouds.3 mph88%30.09 "HgN/A
10:25 PM52 °FSunny.5 mph82%30.09 "HgN/A
9:55 PM54 °FPassing clouds.5 mph77%30.07 "HgN/A
9:25 PM55 °FSunny.3 mph72%30.07 "HgN/A
8:55 PM57 °FPassing clouds.8 mph63%30.07 "HgN/A
8:25 PM59 °FScattered clouds.12 mph59%30.04 "HgN/A
7:55 PM61 °FPartly sunny.13 mph55%30.04 "HgN/A
7:25 PM61 °FMore clouds than sun.12 mph59%30.04 "HgN/A
6:55 PM61 °FPassing clouds.10 mph55%30.04 "HgN/A
6:25 PM63 °FScattered clouds.16 mph56%30.01 "HgN/A
5:55 PM63 °FOvercast.13 mph52%30.01 "HgN/A
5:25 PM61 °FBroken clouds.10 mph63%30.01 "HgN/A
4:55 PM63 °FPartly sunny.8 mph56%30.01 "HgN/A
4:25 PM61 °FBroken clouds.9 mph72%30.01 "HgN/A
3:55 PM59 °FMostly cloudy.8 mph82%30.01 "HgN/A
3:25 PM59 °FOvercast.8 mph82%30.01 "HgN/A
2:55 PM61 °FScattered clouds.10 mph83%29.98 "HgN/A
2:25 PM57 °FMostly cloudy.9 mph94%29.98 "HgN/A
1:55 PM55 °FBroken clouds.10 mph94%29.98 "HgN/A
1:25 PM55 °FBroken clouds.10 mph88%29.98 "HgN/A
12:55 PM61 °FMostly cloudy.12 mph72%29.95 "HgN/A
12:25 PM61 °FBroken clouds.8 mph72%29.95 "HgN/A
11:55 AM61 °FBroken clouds.7 mph77%29.95 "HgN/A
11:25 AM55 °FBroken clouds.5 mph94%29.95 "HgN/A
10:55 AM55 °FOvercast.8 mph88%29.95 "HgN/A
10:25 AM59 °FBroken clouds.9 mph72%29.95 "HgN/A
9:55 AM59 °FBroken clouds.10 mph72%29.92 "HgN/A
9:25 AM59 °FPassing clouds.7 mph72%29.92 "HgN/A
8:55 AM57 °FPassing clouds.8 mph82%29.92 "HgN/A
8:25 AM55 °FPassing clouds.7 mph88%29.92 "HgN/A
7:55 AM54 °FPassing clouds.8 mph88%29.92 "HgN/A
7:25 AM52 °FPassing clouds.7 mph94%29.92 "HgN/A
6:55 AM48 °FSunny.7 mph100%29.92 "HgN/A
6:25 AM48 °FPassing clouds.6 mph94%29.89 "HgN/A
5:55 AM48 °FClear.6 mph94%29.89 "HgN/A
5:25 AM48 °FPassing clouds.6 mph94%29.89 "HgN/A
4:55 AM48 °FPassing clouds.7 mph94%29.89 "HgN/A
4:25 AM48 °FPassing clouds.7 mph94%29.89 "HgN/A
3:55 AM48 °FPassing clouds.7 mph100%29.89 "HgN/A
3:25 AM50 °FPassing clouds.8 mph94%29.89 "HgN/A
Weather by CustomWeather, © 2015

See weather overviewHow to use our weather pages